Regional Weather Roundup
Issued by NWS

Home | Current Version | Previous Version | Graphics & Text | Print | Product List | Glossary On
Versions: 1 2 3 4 5 6 7 8 9 10 11 12 13 14 15 16 17 18 19 20 21 22 23 24 25 26 27 28 29 30 31 32 33 34 35 36 37 38 39 40 41 42 43 44 45 46 47 48 49 50
000
ASUS43 KIND 232009
RWRIN

WEATHER ROUNDUP FOR INDIANA
NATIONAL WEATHER SERVICE INDIANAPOLIS IN
400 PM EDT MON APR 23 2018

NOTE: "FAIR" INDICATES FEW OR NO CLOUDS BELOW 12,000 FEET WITH NO
SIGNIFICANT WEATHER AND/OR OBSTRUCTIONS TO VISIBILITY.

* - STATION DOES NOT REPORT WEATHER SUCH AS PRECIPITATION OR FOG.

+ - STATION NOT QUALITY CONTROLLED BY THE NATIONAL WEATHER SERVICE.
    USE DATA WITH CAUTION...ESPECIALLY DEWPOINT AND RELATIVE
    HUMIDITY OBSERVATIONS.

INZ001>003-010>013-019-020-232100-
NORTHWEST INDIANA

CITY           SKY/WX    TMP DP  RH WIND       PRES   REMARKS
GARY /AIRPORT/ PTSUNNY   50  36  57 N8        30.13S
KNOX *+        CLOUDY    64  43  45 SE13      30.10S
LA PORTE +     PTSUNNY   68  43  40 SE14      30.10F
MICHIGAN CITY+ PTSUNNY   59  36  41 N5        30.10S
MONTICELLO +   LGT RAIN  60  49  66 SE10G16   30.09S
RENSSELAER +   FAIR      66  34  30 E14       30.09S
VALPARAISO     FAIR      70  44  39 SE18G24   30.09F

$$

LMZ046-743>745-232100-
SOUTHERN LAKE MICHIGAN

STATION/POSITION TIME  TEMP    WIND        PRES    WAVE
                       AIR SEA DIR/SP/G            HT
                 (UTC) (F)     (DEG/KT/KT) (MB)    (FT)
BURNS HARBOR     1940   42     290/  4/  5 1020.7S
MICHIGAN CITY    1940   44     260/  3/  3   N/A

$$

INZ004-005-014>016-021>024-232100-
NORTH CENTRAL INDIANA

CITY           SKY/WX    TMP DP  RH WIND       PRES   REMARKS
ELKHART        FAIR      72  43  35 SE14G23   30.09F
GOSHEN         PTSUNNY   70  45  40 SE14      30.09F
LOGANSPORT +   DRIZZLE   57  52  82 SE14G20   30.12S
ROCHESTER +    DRIZZLE   64  46  52 S10       30.12S
SOUTH BEND     FAIR      71  42  35 SE16G22   30.09F
WARSAW +       PTSUNNY   68  45  42 S6        30.09F

$$

INZ006>009-017-018-025>027-232100-
NORTHEAST INDIANA

CITY           SKY/WX    TMP DP  RH WIND       PRES   REMARKS
AUBURN +       FAIR      68  46  45 S10G17    30.10F
FORT WAYNE     LGT RAIN  62  51  67 S15       30.13S
HUNTINGTON +   DRIZZLE   57  53  84 S9        30.13S

$$

INZ028-029-035-036-043>045-051>053-232100-
WEST CENTRAL INDIANA

CITY           SKY/WX    TMP DP  RH WIND       PRES   REMARKS
CRAWFORDSVL +  DRIZZLE   53  53 100 E15       30.07F
GREENCASTLE +  CLOUDY    54  54 100 E10       30.06F FOG
LAFAYETTE      LGT RAIN  57  54  89 E14       30.08F
TERRE HAUTE    LGT RAIN  57  55  93 E12       30.03F

$$

INZ030>032-037>040-046>048-054>057-064-065-232100-
CENTRAL INDIANA

CITY           SKY/WX    TMP DP  RH WIND       PRES   REMARKS
ANDERSON         N/A     55  54  94 E12       30.12F
FISHERS *+     CLOUDY    54  54 100 E9        30.09
FRANKFORT +    LGT RAIN  57  55  92 SE17      30.11F
GREENWOOD *+   CLOUDY    55  53  95 E12       30.08F
INDIANAPOLIS   LGT RAIN  55  53  93 E12       30.07F FOG
-EAGLE CREEK   LGT RAIN  56  52  86 E8        30.07F FOG
KOKOMO +       LGT RAIN  56  54  93 E16       30.12F
MARION +       CLOUDY    56  53  91 SE12      30.13F
MT COMFORT *+  CLOUDY    54  54 100 E15       30.09F
SHELBYVILLE    LGT RAIN  58  53  84 E13       30.07F
ZIONSVILLE +   LGT RAIN  54  53  98 E10       30.10F

$$

INZ033-034-041-042-049-050-058-059-232100-
EAST CENTRAL INDIANA

CITY           SKY/WX    TMP DP  RH WIND       PRES   REMARKS
MUNCIE         LGT RAIN  58  54  86 SE14      30.12F
RICHMOND +     LGT RAIN  54  54 100 SE16      30.13F

$$

INZ060-061-067>069-081>083-085>088-232100-
SOUTHWEST INDIANA

CITY           SKY/WX    TMP DP  RH WIND       PRES   REMARKS
EVANSVILLE     CLOUDY    65  58  78 NE8       29.94F
HUNTINGBURG +  CLOUDY    63  56  78 E13       29.96F
WASHINGTON +   CLOUDY    59  54  85 E15G22    29.99F

$$

INZ062-063-066-070>080-084-089>092-232100-
SOUTH CENTRAL AND SOUTHEAST INDIANA

CITY           SKY/WX    TMP DP  RH WIND       PRES   REMARKS
BATESVILLE +   MOSUNNY   55  55 100 MISG      30.09F FOG
BEDFORD +      LGT RAIN  55  52  88 E10       30.02F
BLOOMINGTON    LGT RAIN  56  54  93 E10       30.03F
FRENCH LICK *+ CLOUDY    55 N/A N/A NE8       30.00F
MADISON *+     CLOUDY    57  54  88 E12G18    30.06F
NORTH VERNON + LGT RAIN  55  52  88 E8        30.06F
SEYMOUR +      LGT RAIN  57  55  94 E9        30.03F

$$





USA.gov is the U.S. government's official web portal to all federal, state and local government web resources and services.